�������l�o���
Date,Time,MP-1(��Sv/h),MP-2(��Sv/h),MP-3(��Sv/h),MP-4(��Sv/h),MP-5(��Sv/h),MP-6(��Sv/h),MP-7(��Sv/h),MP-8(��Sv/h),����,����(m/s),���J
2022/05/05,00:00,0.574,0.849,0.546,1.030,0.727,0.348,0.597,0.563,���쐼,1.5,��
2022/05/05,00:10,0.573,0.850,0.546,1.032,0.727,0.347,0.596,0.564,��쓌,0.6,��
2022/05/05,00:20,0.573,0.849,0.545,1.031,0.724,0.347,0.598,0.563,-,CALM,��
2022/05/05,00:30,0.573,0.850,0.545,1.033,0.727,0.347,0.596,0.564,-,CALM,��
2022/05/05,00:40,0.571,0.850,0.545,1.030,0.728,0.349,0.598,0.565,��,0.6,��
2022/05/05,00:50,0.572,0.850,0.544,1.030,0.726,0.346,0.598,0.562,�k�k��,1.7,��
2022/05/05,01:00,0.573,0.850,0.542,1.030,0.726,0.347,0.597,0.564,�k�k��,1.5,��
2022/05/05,01:10,0.571,0.849,0.546,1.030,0.726,0.348,0.599,0.564,�k,1.9,��
2022/05/05,01:20,0.572,0.848,0.546,1.029,0.725,0.346,0.599,0.564,�k��,2.6,��
2022/05/05,01:30,0.572,0.849,0.544,1.033,0.726,0.349,0.598,0.562,�k��,3.4,��
2022/05/05,01:40,0.573,0.851,0.545,1.031,0.728,0.348,0.596,0.564,�k��,5.6,��
2022/05/05,01:50,0.572,0.850,0.547,1.032,0.726,0.347,0.597,0.562,�k��,6.1,��
2022/05/05,02:00,0.573,0.850,0.545,1.031,0.727,0.347,0.597,0.564,���k��,6.2,��
2022/05/05,02:10,0.572,0.851,0.545,1.030,0.725,0.348,0.597,0.564,���k��,6.0,��
2022/05/05,02:20,0.570,0.849,0.543,1.032,0.725,0.347,0.597,0.564,���k��,6.2,��
2022/05/05,02:30,0.571,0.850,0.545,1.030,0.725,0.347,0.598,0.563,���k��,4.8,��
2022/05/05,02:40,0.572,0.850,0.545,1.033,0.727,0.347,0.598,0.565,�k��,1.9,��
2022/05/05,02:50,0.570,0.850,0.544,1.032,0.725,0.346,0.596,0.563,�k,5.5,��
2022/05/05,03:00,0.572,0.848,0.545,1.032,0.726,0.347,0.598,0.563,�k�k��,5.6,��
2022/05/05,03:10,0.573,0.849,0.544,1.032,0.725,0.347,0.597,0.564,�k,6.5,��
2022/05/05,03:20,0.572,0.848,0.545,1.033,0.726,0.346,0.598,0.562,�k�k��,6.1,��
2022/05/05,03:30,0.571,0.851,0.544,1.031,0.725,0.346,0.599,0.563,�k�k��,4.8,��
2022/05/05,03:40,0.572,0.850,0.543,1.031,0.726,0.346,0.599,0.563,�k,4.6,��
2022/05/05,03:50,0.572,0.848,0.544,1.034,0.726,0.347,0.598,0.564,�k,4.5,��
2022/05/05,04:00,0.571,0.850,0.543,1.033,0.725,0.346,0.598,0.564,�k�k��,4.8,��
2022/05/05,04:10,0.570,0.848,0.543,1.033,0.726,0.347,0.599,0.563,�k�k��,4.3,��
2022/05/05,04:20,0.570,0.849,0.543,1.031,0.725,0.346,0.599,0.562,�k�k��,4.9,��
2022/05/05,04:30,0.569,0.851,0.544,1.032,0.726,0.347,0.598,0.563,�k�k��,5.3,��
2022/05/05,04:40,0.571,0.849,0.545,1.032,0.726,0.346,0.597,0.564,�k�k��,5.0,��
2022/05/05,04:50,0.571,0.850,0.544,1.032,0.725,0.347,0.597,0.562,�k�k��,5.0,��
2022/05/05,05:00,0.571,0.850,0.544,1.032,0.726,0.345,0.597,0.562,�k�k��,5.3,��
2022/05/05,05:10,0.571,0.849,0.545,1.035,0.725,0.346,0.599,0.563,�k�k��,5.7,��
2022/05/05,05:20,0.571,0.851,0.544,1.033,0.726,0.346,0.598,0.563,�k�k��,5.9,��
2022/05/05,05:30,0.571,0.849,0.543,1.033,0.727,0.347,0.598,0.563,�k�k��,5.3,��
2022/05/05,05:40,0.571,0.849,0.542,1.034,0.725,0.345,0.601,0.562,�k��,4.9,��
2022/05/05,05:50,0.571,0.849,0.546,1.032,0.726,0.346,0.599,0.564,�k�k��,5.3,��
2022/05/05,06:00,0.571,0.851,0.544,1.033,0.725,0.347,0.599,0.563,�k�k��,5.5,��
2022/05/05,06:10,0.572,0.850,0.544,1.036,0.726,0.346,0.599,0.563,�k�k��,5.2,��
2022/05/05,06:20,0.570,0.851,0.542,1.033,0.727,0.346,0.599,0.563,�k�k��,5.3,��
2022/05/05,06:30,0.572,0.851,0.546,1.033,0.727,0.347,0.600,0.564,�k�k��,5.1,��
2022/05/05,06:40,0.573,0.849,0.545,1.035,0.727,0.347,0.599,0.562,�k�k��,5.1,��
2022/05/05,06:50,0.571,0.851,0.544,1.034,0.725,0.345,0.600,0.564,�k,4.5,��
2022/05/05,07:00,0.572,0.850,0.544,1.034,0.727,0.346,0.600,0.562,�k,4.0,��
2022/05/05,07:10,0.572,0.849,0.546,1.035,0.725,0.345,0.599,0.562,�k,3.8,��
2022/05/05,07:20,0.573,0.850,0.545,1.036,0.725,0.344,0.600,0.564,�k,3.5,��
2022/05/05,07:30,0.573,0.850,0.546,1.034,0.728,0.346,0.599,0.565,�k�k��,3.6,��
2022/05/05,07:40,0.572,0.848,0.544,1.035,0.728,0.344,0.600,0.565,�k�k��,3.6,��
2022/05/05,07:50,0.573,0.849,0.546,1.035,0.726,0.345,0.599,0.566,�k,3.3,��
2022/05/05,08:00,0.574,0.848,0.544,1.033,0.726,0.345,0.599,0.563,�k,2.9,��
2022/05/05,08:10,0.571,0.848,0.546,1.035,0.725,0.346,0.599,0.563,�k�k��,3.1,��
2022/05/05,08:20,0.573,0.848,0.544,1.034,0.727,0.345,0.599,0.562,�k,3.1,��
2022/05/05,08:30,0.571,0.848,0.544,1.035,0.728,0.345,0.600,0.562,�k�k��,2.8,��
2022/05/05,08:40,0.571,0.848,0.542,1.035,0.726,0.347,0.598,0.561,�k�k��,2.5,��
2022/05/05,08:50,0.572,0.848,0.544,1.034,0.727,0.346,0.597,0.561,�k�k��,2.3,��
2022/05/05,09:00,0.572,0.850,0.545,1.033,0.725,0.346,0.599,0.562,�k,1.7,��
2022/05/05,09:10,0.571,0.847,0.544,1.036,0.725,0.346,0.596,0.562,�k�k��,1.4,��
2022/05/05,09:20,0.571,0.850,0.543,1.036,0.729,0.346,0.599,0.563,�k��,2.6,��
2022/05/05,09:30,0.572,0.851,0.542,1.037,0.727,0.346,0.599,0.562,�k��,3.7,��
2022/05/05,09:40,0.571,0.850,0.543,1.035,0.727,0.346,0.597,0.561,�k�k��,3.7,��
2022/05/05,09:50,0.573,0.852,0.544,1.034,0.725,0.346,0.597,0.561,�k�k��,3.8,��
2022/05/05,10:00,0.570,0.853,0.543,1.036,0.726,0.346,0.597,0.562,�k�k��,3.9,��
2022/05/05,10:10,0.571,0.850,0.542,1.036,0.724,0.345,0.597,0.561,�k�k��,3.0,��
2022/05/05,10:20,0.570,0.851,0.542,1.035,0.726,0.345,0.598,0.564,�k�k��,2.3,��
2022/05/05,10:30,0.571,0.850,0.543,1.035,0.728,0.345,0.597,0.562,�k��,3.0,��
2022/05/05,10:40,0.573,0.851,0.542,1.038,0.728,0.347,0.596,0.562,�k��,2.2,��
2022/05/05,10:50,0.572,0.853,0.543,1.036,0.727,0.345,0.597,0.562,�k��,2.9,��
2022/05/05,11:00,0.573,0.852,0.544,1.037,0.730,0.345,0.597,0.563,���k��,2.0,��
2022/05/05,11:10,0.572,0.855,0.543,1.037,0.729,0.347,0.597,0.562,��,1.7,��
2022/05/05,11:20,0.572,0.853,0.543,1.036,0.728,0.345,0.599,0.563,��,2.9,��
2022/05/05,11:30,0.572,0.855,0.542,1.033,0.729,0.345,0.596,0.562,���쓌,1.9,��
2022/05/05,11:40,0.573,0.853,0.544,1.031,0.729,0.344,0.598,0.564,��쓌,2.3,��
2022/05/05,11:50,0.572,0.852,0.544,1.035,0.729,0.346,0.596,0.562,�쓌,2.6,��
2022/05/05,12:00,0.574,0.854,0.543,1.033,0.730,0.346,0.597,0.564,�쓌,2.6,��
2022/05/05,12:10,0.572,0.855,0.544,1.033,0.730,0.347,0.597,0.563,�쓌,2.6,��
2022/05/05,12:20,0.574,0.853,0.546,1.033,0.729,0.346,0.599,0.562,�쓌,2.6,��
2022/05/05,12:30,0.573,0.855,0.545,1.033,0.730,0.345,0.598,0.562,��쓌,3.7,��
2022/05/05,12:40,0.573,0.853,0.546,1.034,0.730,0.345,0.599,0.562,�쓌,2.6,��
2022/05/05,12:50,0.574,0.854,0.546,1.035,0.731,0.346,0.600,0.563,�쓌,3.9,��
2022/05/05,13:00,0.571,0.855,0.543,1.038,0.729,0.348,0.599,0.563,�쓌,5.1,��
2022/05/05,13:10,0.572,0.855,0.546,1.035,0.730,0.345,0.599,0.562,�쓌,4.2,��
2022/05/05,13:20,0.573,0.855,0.545,1.037,0.730,0.346,0.600,0.564,�쓌,4.7,��
2022/05/05,13:30,0.574,0.857,0.545,1.036,0.729,0.346,0.599,0.563,�쓌,5.4,��
2022/05/05,13:40,0.572,0.855,0.546,1.037,0.730,0.347,0.600,0.563,�쓌,5.0,��
2022/05/05,13:50,0.574,0.854,0.546,1.040,0.731,0.346,0.600,0.563,��쓌,5.8,��
2022/05/05,14:00,0.574,0.854,0.544,1.039,0.732,0.346,0.601,0.563,��쓌,6.1,��
2022/05/05,14:10,0.574,0.855,0.545,1.037,0.731,0.345,0.600,0.562,��,7.5,��
2022/05/05,14:20,0.574,0.851,0.546,1.035,0.732,0.347,0.601,0.563,��,6.5,��
2022/05/05,14:30,0.574,0.854,0.545,1.036,0.731,0.347,0.601,0.564,��쓌,8.2,��
2022/05/05,14:40,0.574,0.856,0.546,1.035,0.731,0.347,0.601,0.563,��쓌,7.9,��
2022/05/05,14:50,0.577,0.857,0.546,1.036,0.732,0.347,0.601,0.564,��쓌,8.8,��
2022/05/05,15:00,0.573,0.855,0.548,1.039,0.731,0.346,0.599,0.563,��,9.6,��
2022/05/05,15:10,0.574,0.855,0.546,1.036,0.731,0.348,0.602,0.564,��,7.2,��
2022/05/05,15:20,0.576,0.856,0.547,1.034,0.732,0.347,0.601,0.563,��,7.7,��
2022/05/05,15:30,0.575,0.855,0.545,1.034,0.733,0.348,0.601,0.563,��,8.1,��
2022/05/05,15:40,0.575,0.853,0.546,1.037,0.732,0.347,0.602,0.563,��,8.9,��
2022/05/05,15:50,0.574,0.858,0.546,1.037,0.731,0.347,0.600,0.563,��,9.2,��
2022/05/05,16:00,0.576,0.854,0.548,1.038,0.734,0.347,0.600,0.563,��,9.6,��
2022/05/05,16:10,0.575,0.854,0.547,1.038,0.734,0.347,0.600,0.562,��,8.5,��
2022/05/05,16:20,0.573,0.853,0.546,1.040,0.733,0.347,0.600,0.562,��,7.8,��
2022/05/05,16:30,0.573,0.855,0.545,1.038,0.732,0.349,0.600,0.563,��,7.0,��
2022/05/05,16:40,0.575,0.856,0.545,1.040,0.733,0.347,0.599,0.564,��,9.9,��
2022/05/05,16:50,0.574,0.855,0.544,1.035,0.733,0.346,0.597,0.564,��,10.7,��
2022/05/05,17:00,0.575,0.856,0.547,1.035,0.732,0.347,0.600,0.564,��,9.9,��
2022/05/05,17:10,0.575,0.858,0.547,1.036,0.732,0.348,0.600,0.564,��,10.2,��
2022/05/05,17:20,0.575,0.858,0.547,1.036,0.733,0.347,0.600,0.564,��,9.9,��
2022/05/05,17:30,0.574,0.859,0.545,1.038,0.732,0.349,0.599,0.563,��,9.8,��
2022/05/05,17:40,0.573,0.860,0.546,1.039,0.732,0.348,0.599,0.564,��,9.2,��
2022/05/05,17:50,0.573,0.859,0.546,1.038,0.733,0.347,0.599,0.565,��,8.3,��
2022/05/05,18:00,0.574,0.858,0.547,1.039,0.731,0.348,0.598,0.565,��,8.0,��
2022/05/05,18:10,0.573,0.857,0.545,1.039,0.730,0.348,0.597,0.567,��,8.3,��
2022/05/05,18:20,0.573,0.858,0.545,1.039,0.731,0.348,0.596,0.565,��,9.5,��
2022/05/05,18:30,0.575,0.859,0.545,1.041,0.732,0.349,0.599,0.566,��,9.5,��
2022/05/05,18:40,0.576,0.859,0.545,1.041,0.734,0.348,0.599,0.566,��,8.8,��
2022/05/05,18:50,0.574,0.861,0.545,1.040,0.730,0.349,0.600,0.564,��,8.1,��
2022/05/05,19:00,0.576,0.857,0.547,1.038,0.733,0.349,0.599,0.567,��,8.0,��
2022/05/05,19:10,0.578,0.859,0.547,1.040,0.736,0.350,0.600,0.566,��,9.0,��
2022/05/05,19:20,0.577,0.857,0.548,1.039,0.732,0.349,0.601,0.566,��,9.4,��
2022/05/05,19:30,0.578,0.859,0.548,1.040,0.733,0.349,0.601,0.564,��,8.3,��
2022/05/05,19:40,0.575,0.859,0.545,1.041,0.736,0.349,0.601,0.565,��,7.7,��
2022/05/05,19:50,0.577,0.859,0.548,1.039,0.736,0.349,0.601,0.566,��,8.9,��
2022/05/05,20:00,0.576,0.859,0.548,1.039,0.734,0.348,0.601,0.566,��,9.3,��
2022/05/05,20:10,0.576,0.859,0.546,1.040,0.734,0.349,0.601,0.564,��,7.8,��
2022/05/05,20:20,0.580,0.857,0.547,1.040,0.736,0.348,0.600,0.565,��,7.2,��
2022/05/05,20:30,0.576,0.857,0.548,1.040,0.736,0.347,0.600,0.565,��,7.8,��
2022/05/05,20:40,0.575,0.860,0.549,1.039,0.734,0.349,0.600,0.564,��,9.6,��
2022/05/05,20:50,0.576,0.859,0.548,1.041,0.735,0.349,0.602,0.565,��,8.8,��
2022/05/05,21:00,0.577,0.858,0.547,1.040,0.733,0.348,0.601,0.565,��,7.6,��
2022/05/05,21:10,0.577,0.858,0.548,1.039,0.732,0.348,0.601,0.564,��,7.9,��
2022/05/05,21:20,0.576,0.858,0.548,1.041,0.735,0.349,0.600,0.563,��,7.9,��
2022/05/05,21:30,0.575,0.859,0.549,1.040,0.734,0.349,0.601,0.564,��,7.7,��
2022/05/05,21:40,0.576,0.858,0.547,1.041,0.735,0.349,0.602,0.565,��,7.0,��
2022/05/05,21:50,0.577,0.859,0.546,1.040,0.735,0.348,0.601,0.565,��,6.8,��
2022/05/05,22:00,0.576,0.858,0.546,1.038,0.735,0.348,0.602,0.564,��,6.7,��
2022/05/05,22:10,0.577,0.859,0.547,1.041,0.734,0.348,0.600,0.565,��,6.1,��
2022/05/05,22:20,0.575,0.859,0.547,1.041,0.734,0.347,0.602,0.565,��,5.9,��
2022/05/05,22:30,0.576,0.859,0.547,1.040,0.732,0.348,0.602,0.565,��,5.3,��
2022/05/05,22:40,0.575,0.859,0.548,1.042,0.733,0.348,0.602,0.567,��쐼,3.9,��
2022/05/05,22:50,0.577,0.858,0.547,1.040,0.733,0.348,0.601,0.565,��,4.0,��
2022/05/05,23:00,0.576,0.857,0.547,1.040,0.734,0.349,0.600,0.565,��,3.5,��
2022/05/05,23:10,0.575,0.855,0.548,1.039,0.733,0.350,0.600,0.565,��,2.8,��
2022/05/05,23:20,0.575,0.857,0.546,1.039,0.735,0.348,0.600,0.565,��,3.3,��
2022/05/05,23:30,0.575,0.860,0.546,1.040,0.732,0.347,0.599,0.565,��,3.5,��
2022/05/05,23:40,0.575,0.857,0.546,1.040,0.734,0.348,0.601,0.566,��,4.5,��
2022/05/05,23:50,0.575,0.858,0.546,1.040,0.735,0.349,0.599,0.564,��,3.7,��
